Simultaneous Nadir Overpasses (SNOs) Predictions

Prediction of SNOs between GOES-16 and METOP-B Satellite Orbit:

Table of predicted SNOs for the next 14.0 days since TLE Epoch: 10/26/2024
Index Date Time (GOES-16) GOES-16 Lat,Lon METOP-B Lat,Lon Distance(km) Time Diff (sec)
1 10/28/2024 14:14:49 -0.04, -75.23 -0.12, -74.76 53.70 80
2 10/30/2024 02:36:25 0.04, -75.23 -0.87, -79.36 470.17 80
3 10/31/2024 02:15:41 0.04, -75.24 0.24, -74.35 101.21 80
4 11/01/2024 14:34:27 -0.04, -75.28 0.80, -78.90 412.55 80
5 11/02/2024 14:11:04 -0.03, -75.30 -0.37, -73.91 159.05 80
6 11/04/2024 02:32:37 0.03, -75.29 -0.70, -78.48 364.17 80
7 11/05/2024 02:11:54 0.03, -75.31 0.41, -73.48 207.60 80
8 11/06/2024 14:30:39 -0.02, -75.35 0.60, -78.03 305.64 80
9 11/07/2024 14:07:16 -0.02, -75.37 -0.53, -73.03 266.35 80
10 11/09/2024 02:28:50 0.01, -75.37 -0.46, -77.62 255.98 80
